Weather observations for the past three days for
Wooster, Wayne County Airport
Metric (Imperial)
Date Time (edt) Wind (kph) Vis. (km) Weather Sky Cond. Temperature (ºC) Relative Humidity Wind Chill (°C) Heat Index (°C) Pressure Precipitation (cm)
Air Dwpt 6 hour altimeter (cm) sea level (mb) 1 hr 3 hr 6 hr
Max. Min.
25 00:56 SE 6 16.09 Fair CLR 19.4 12.8 66% 75.87 1010.7
24 23:56 SE 9 16.09 Mostly Cloudy BKN060 21.7 11.7 53% 75.92 1011.2
24 22:56 SE 11 11.27 Fair CLR 21.1 11.1 53% 75.87 1010.8
24 21:56 E 7 16.09 Fair CLR 20 11.1 57% 75.87 1010.8
24 20:56 E 7 16.09 Fair CLR 21.7 12.2 55% 75.87 1010.8
24 19:56 NE 13 16.09 Fair CLR 24.4 12.2 28.9 24.4 47% 26 75.87 1010.8
24 18:56 W 7 16.09 Fair CLR 27.8 11.7 37% 27 75.84 1010.5
24 17:56 Vrbl 7 16.09 A Few Clouds FEW085 28.3 11.1 34% 28 75.87 1010.8
24 16:56 Vrbl 7 16.09 Fair CLR 28.3 11.1 34% 28 75.84 1010.5
24 15:56 SW 7 16.09 A Few Clouds FEW075 27.8 11.7 37% 27 75.9 1011.1
24 14:56 W 11 16.09 A Few Clouds FEW075 28.3 11.1 34% 28 76 1012.3
24 13:56 Vrbl 6 G 28 16.09 Mostly Cloudy BKN070 27.8 11.7 28.3 18.3 37% 27 76 1012.3
24 12:56 W 13 16.09 A Few Clouds FEW065 27.2 11.1 37% 27 76 1012.4
24 11:56 SW 11 16.09 Fair CLR 26.1 12.2 42% 26 76.02 1012.7
24 10:56 Calm 16.09 Fair CLR 25 13.9 50% 26 76.05 1013.0
24 09:56 Vrbl 7 16.09 Fair CLR 23.3 14.4 57% 76.05 1013.1
24 08:56 Calm 16.09 Fair CLR 21.1 15.6 71% 76.05 1013.1
24 07:56 Calm 11.27 Fair CLR 18.3 16.1 18.3 14.4 87% 76.02 1012.8
24 06:56 Calm 6.44 Fog/Mist FEW002 15.6 14.4 93% 76.02 1013.1
24 05:56 Calm 8.05 Fog/Mist CLR 15 13.3 90% 76 1012.7
24 04:56 Calm 9.66 Fog/Mist CLR 15.6 13.9 90% 76 1012.7
24 03:56 Calm 12.87 Fair CLR 15.6 13.9 90% 76.02 1012.7
24 02:56 Calm 16.09 Fair CLR 16.7 14.4 86% 76 1012.6
24 01:56 Calm 16.09 Fair CLR 16.7 14.4 23.9 16.1 86% 76.02 1012.9
24 00:56 Calm 16.09 Fair CLR 17.8 15 84% 76.02 1013.0
23 23:56 Calm 16.09 Fair CLR 17.8 15 84% 76.05 1013.4
23 22:56 Calm 16.09 Fair CLR 20 15 73% 76.07 1013.4
23 21:56 Calm 16.09 Fair CLR 20 15 73% 76.02 1012.9
23 20:56 Calm 16.09 Fair CLR 21.7 15 66% 76 1012.7
23 19:56 SW 6 16.09 Fair CLR 24.4 15 26.1 24.4 56% 26 76 1012.4
23 18:56 W 7 16.09 Partly Cloudy SCT060 25.6 12.8 45% 26 76 1012.6
23 17:56 SW 9 16.09 Partly Cloudy SCT060 25.6 12.2 43% 26 76.02 1012.8
23 16:56 Calm 16.09 Fair CLR 25 10 39% 26 76.02 1013.1
23 15:56 W 15 16.09 Fair CLR 26.1 10.6 38% 26 76.07 1013.7
23 14:56 SW 15 16.09 Fair CLR 25 8.9 36% 26 76.12 1014.1
23 13:56 Vrbl 9 16.09 Fair CLR 24.4 9.4 24.4 18.9 39% 25 76.15 1014.4
23 12:56 NW 6 16.09 Fair CLR 23.9 8.9 39% 25 76.2 1015.2
23 11:56 S 9 16.09 Fair CLR 23.3 8.3 38% 76.2 1015.4
23 10:56 NE 9 16.09 Fair CLR 22.8 8.9 41% 76.23 1015.5
23 09:56 NE 9 16.09 Fair CLR 22.8 9.4 43% 76.23 1015.6
23 08:56 Calm 16.09 A Few Clouds FEW055 21.1 10.6 51% 76.25 1015.8
23 07:56 Calm 16.09 Fair CLR 18.3 14.4 18.9 15.6 78% 76.23 1015.4
23 06:56 Calm 16.09 Fair CLR 15.6 13.9 90% 76.12 1014.4
23 05:56 Calm 16.09 Overcast OVC055 15.6 13.9 90% 76.15 1014.4
23 04:56 Calm 16.09 Mostly Cloudy BKN055 BKN120 16.1 13.9 87% 76.1 1014.0
23 03:56 Calm 16.09 Fair CLR 17.2 14.4 84% 76.07 1013.3
23 02:56 Calm 16.09 Fair CLR 17.8 15 84% 76.05 1013.3
23 01:56 W 11 16.09 Partly Cloudy SCT060 18.9 15.6 25.6 18.3 81% 75.97 1012.1 0.1
23 00:56 W 9 16.09 Mostly Cloudy BKN065 18.9 15.6 81% 75.92 1011.5
22 23:56 SW 7 16.09 Fair CLR 18.9 15.6 81% 75.92 1011.4
22 22:56 SW 11 16.09 Partly Cloudy SCT075 SCT100 19.4 15 76% 75.9 1011.0 0.1 0.1
22 21:56 SW 17 G 33 16.09 Thunderstorm in Vicinity Light Rain FEW030 SCT090 BKN110 23.9 18.9 74% 25 75.84 1010.4
22 20:56 S 17 16.09 Fair CLR 23.9 18.3 71% 25 75.77 1009.1
22 19:56 S 28 G 43 16.09 Fair CLR 25.6 18.9 27.8 25.6 67% 27 75.77 1009.1
22 18:56 S 28 G 46 16.09 Fair CLR 26.7 18.3 60% 28 75.77 1009.4
22 17:56 S 28 G 35 16.09 A Few Clouds FEW044 27.8 18.3 56% 29 75.74 1009.0
22 16:56 SW 26 G 46 16.09 Partly Cloudy SCT036 27.2 18.9 61% 28 75.77 1009.2
22 15:56 SW 28 G 48 16.09 Mostly Cloudy BKN038 27.2 19.4 62% 29 75.82 1009.9
22 14:56 SW 24 16.09 Mostly Cloudy FEW033 BKN046 BKN055 25.6 18.3 64% 27 75.82 1010.0
22 13:56 SW 28 G 43 16.09 Mostly Cloudy BKN038 BKN046 BKN090 26.1 18.9 26.7 21.1 65% 27 75.84 1010.2 0.53
22 12:56 SW 33 G 46 16.09 A Few Clouds and Breezy FEW100 25 18.3 66% 26 75.87 1010.6
22 11:56 SW 24 G 52 16.09 Mostly Cloudy FEW047 SCT055 BKN120 23.3 18.3 74% 75.92 1011.4
22 10:56 S 19 16.09 Light Rain FEW044 FEW080 SCT100 22.2 18.9 82% 75.9 1011.1 0.25 0.53
22 09:56 SW 26 G 44 2.41 Thunderstorm Heavy Rain FEW033 SCT055 OVC085 22.2 17.8 76% 75.97 1011.8 0.28
22 08:56 SW 17 G 37 16.09 Fair CLR 24.4 17.2 64% 25 75.87 1010.7
22 07:56 S 19 16.09 Fair CLR 22.8 16.7 22.8 21.1 69% 75.87 1010.7
22 06:56 S 19 16.09 Fair CLR 21.7 16.1 71% 75.87 1010.7
22 05:56 S 15 16.09 Fair CLR 21.1 16.1 73% 75.87 1010.3
22 04:56 S 15 16.09 Fair CLR 21.7 16.7 73% 75.87 1010.5
22 03:56 S 11 16.09 Fair CLR 21.7 16.1 71% 75.9 1010.8
22 02:56 S 9 16.09 Fair CLR 21.7 16.1 71% 75.92 1011.1
22 01:56 SW 9 16.09 Fair CLR 22.2 16.1 27.8 21.7 68% 75.95 1011.6
Date Time (edt) Wind (kph) Vis. (km) Weather Sky Cond. Air Dwpt Max. Min. Relative Humidity Wind Chill (°C) Heat Index (°C) altimeter (cm) sea level (mb) 1 hr 3 hr 6 hr
6 hour
Temperature (ºC) Pressure Precipitation (cm)